GFSMA_prec_precacc_159.txt.gz
Total_Precipitation_Accumulation
0.15 0.13 0.07 0.03 0.01 0.00 0.00 0.00 0.00 0.00 0.00 0.00 0.00 0.00 0.00 0.00 0.00 0.00 0.00 0.00 0.00 0.00 0.00 0.01 0.01 0.01 0.04 0.07 0.11 0.13 0.14 0.12 0.10 0.09 0.09 0.09 0.09 0.11 0.12 0.14 0.15 0.16 0.16
0.12 0.12 0.07 0.04 0.03 0.03 0.01 0.01 0.01 0.00 0.00 0.00 0.00 0.00 0.00 0.00 0.00 0.00 0.00 0.00 0.00 0.00 0.00 0.01 0.04 0.01 0.02 0.04 0.07 0.12 0.11 0.09 0.08 0.09 0.09 0.09 0.10 0.11 0.13 0.15 0.17 0.19 0.20
0.18 0.16 0.13 0.10 0.06 0.08 0.10 0.07 0.04 0.02 0.03 0.03 0.02 0.01 0.00 0.00 0.00 0.00 0.00 0.00 0.00 0.00 0.00 0.03 0.22 0.20 0.12 0.15 0.31 0.28 0.20 0.19 0.20 0.20 0.20 0.21 0.18 0.16 0.17 0.21 0.23 0.19 0.18
0.15 0.22 0.21 0.10 0.26 0.31 0.31 0.22 0.20 0.10 0.06 0.07 0.05 0.03 0.01 0.00 0.00 0.00 0.00 0.00 0.00 0.00 0.00 0.00 0.10 0.31 0.45 0.46 0.65 0.93 0.73 0.49 0.36 0.26 0.21 0.18 0.20 0.24 0.25 0.22 0.21 0.22 0.22
0.11 0.14 0.17 0.19 0.30 0.35 0.35 0.29 0.30 0.26 0.21 0.22 0.22 0.14 0.05 0.02 0.02 0.01 0.00 0.00 0.00 0.00 0.00 0.00 0.00 0.05 0.16 0.28 0.40 0.67 1.10 0.78 0.46 0.42 0.33 0.27 0.24 0.23 0.24 0.26 0.27 0.28 0.28
0.29 0.26 0.19 0.16 0.29 0.23 0.22 0.24 0.22 0.25 0.24 0.29 0.25 0.22 0.19 0.17 0.10 0.03 0.01 0.00 0.00 0.00 0.00 0.00 0.00 0.00 0.00 0.02 0.12 0.28 0.53 0.85 0.56 0.37 0.31 0.27 0.24 0.26 0.29 0.29 0.30 0.30 0.29
0.39 0.36 0.23 0.18 0.23 0.16 0.12 0.21 0.21 0.20 0.18 0.22 0.23 0.24 0.27 0.44 0.41 0.19 0.06 0.02 0.01 0.00 0.00 0.01 0.03 0.06 0.03 0.05 0.04 0.05 0.15 0.30 0.43 0.51 0.58 0.66 0.54 0.41 0.36 0.34 0.40 0.42 0.42
0.78 0.45 0.30 0.33 0.25 0.16 0.15 0.16 0.22 0.19 0.14 0.13 0.17 0.18 0.16 0.14 0.25 0.39 0.27 0.08 0.04 0.03 0.05 0.08 0.12 0.12 0.07 0.04 0.04 0.04 0.05 0.09 0.29 0.42 0.44 0.53 0.73 0.63 0.55 0.48 0.50 0.50 0.54
1.48 1.09 0.86 0.79 0.65 0.48 0.52 0.42 0.51 0.51 0.41 0.33 0.30 0.40 0.33 0.20 0.15 0.07 0.09 0.10 0.11 0.09 0.09 0.09 0.09 0.05 0.04 0.05 0.09 0.11 0.14 0.18 0.32 0.51 0.47 0.47 0.57 0.65 0.73 0.77 0.84 0.82 0.85
1.52 1.71 1.74 1.52 1.31 1.27 1.13 1.16 1.02 1.12 1.20 1.07 0.88 0.71 0.67 0.50 0.44 0.24 0.08 0.09 0.09 0.09 0.09 0.07 0.06 0.07 0.11 0.16 0.26 0.35 0.40 0.40 0.41 0.51 0.77 0.83 0.85 0.94 0.99 1.11 1.25 1.37 1.30
1.22 1.46 1.64 1.80 1.81 1.89 1.87 1.95 1.88 1.70 1.51 1.33 1.10 0.98 0.86 0.84 0.80 0.89 0.67 0.34 0.26 0.14 0.09 0.10 0.12 0.14 0.20 0.30 0.39 0.43 0.45 0.46 0.51 0.60 0.85 1.02 1.08 1.10 1.27 1.61 1.82 1.88 1.88
1.50 1.65 1.87 1.85 1.87 1.65 1.48 1.60 1.73 1.47 1.17 0.98 0.88 0.95 1.03 1.00 0.84 0.89 0.83 0.48 0.36 0.21 0.14 0.12 0.12 0.12 0.14 0.23 0.36 0.48 0.54 0.58 0.70 0.80 0.96 1.25 1.31 1.44 1.73 2.07 2.25 2.47 2.51
0.93 0.97 1.02 1.25 1.29 1.14 0.93 0.91 0.94 0.90 0.84 0.76 0.76 0.71 0.74 0.72 0.69 0.69 0.70 0.53 0.42 0.29 0.28 0.23 0.21 0.21 0.21 0.25 0.38 0.60 0.71 0.80 0.82 0.89 1.13 1.36 1.22 1.19 1.21 1.19 1.33 1.87 2.25
0.55 0.62 0.60 0.79 0.87 0.83 0.76 0.60 0.56 0.62 0.72 0.85 0.85 0.75 0.69 0.61 0.65 0.69 0.69 0.75 0.66 0.42 0.31 0.24 0.23 0.33 0.48 0.65 0.80 0.88 0.76 0.82 0.82 0.89 0.89 0.83 0.64 0.56 0.47 0.50 0.62 0.76 1.12
0.66 0.54 0.71 0.70 0.65 0.65 0.61 0.57 0.54 0.55 0.59 0.62 0.68 0.80 0.82 0.73 0.79 0.84 0.92 1.11 1.49 1.34 0.89 0.65 0.70 0.75 0.85 0.88 0.88 0.82 0.73 0.77 0.64 0.46 0.36 0.29 0.24 0.25 0.28 0.31 0.33 0.47 0.59
0.84 0.69 0.57 0.65 0.72 0.64 0.66 0.51 0.41 0.38 0.49 0.56 0.59 0.65 0.68 0.67 0.72 0.82 0.99 1.10 1.35 1.70 1.54 0.75 0.73 0.81 0.89 0.89 0.84 0.69 0.50 0.50 0.38 0.32 0.29 0.27 0.24 0.24 0.22 0.22 0.24 0.32 0.47
0.72 0.70 0.65 0.55 0.51 0.53 0.47 0.53 0.34 0.29 0.30 0.32 0.38 0.43 0.43 0.52 0.56 0.62 0.71 0.82 1.01 1.31 1.46 0.86 0.66 0.54 0.46 0.31 0.24 0.27 0.23 0.18 0.16 0.25 0.26 0.27 0.25 0.23 0.21 0.21 0.23 0.28 0.37
0.63 0.64 0.59 0.68 0.62 0.56 0.54 0.51 0.44 0.32 0.28 0.24 0.24 0.27 0.30 0.36 0.40 0.51 0.60 0.64 0.74 0.83 0.97 0.70 0.35 0.27 0.23 0.18 0.17 0.21 0.20 0.19 0.17 0.24 0.28 0.26 0.28 0.30 0.31 0.29 0.28 0.32 0.38
0.75 0.64 0.66 0.61 0.53 0.61 0.62 0.59 0.54 0.57 0.52 0.44 0.41 0.42 0.44 0.55 0.57 0.65 0.80 0.83 0.83 0.82 0.83 0.86 0.56 0.35 0.29 0.29 0.36 0.39 0.37 0.37 0.34 0.45 0.49 0.52 0.57 0.57 0.56 0.56 0.61 0.67 0.70
1.17 0.84 0.79 0.83 0.90 0.78 0.73 0.76 0.73 0.70 0.62 0.58 0.55 0.58 0.65 0.68 0.68 0.70 0.75 0.74 0.80 0.86 0.92 0.94 0.87 0.74 0.59 0.49 0.62 0.60 0.53 0.46 0.45 0.53 0.69 0.66 0.68 0.67 0.64 0.64 0.62 0.55 0.51
1.31 1.22 1.08 1.11 1.10 1.26 1.27 1.25 1.16 1.08 1.07 1.05 1.01 0.92 0.80 0.83 0.84 0.79 0.81 0.77 0.94 1.09 1.27 1.45 1.36 1.25 1.18 1.03 0.90 0.83 0.96 0.87 0.83 0.70 0.63 0.65 0.72 0.77 0.68 0.68 0.68 0.63 0.60
1.38 1.63 1.36 1.28 1.28 1.16 1.49 1.54 1.43 1.27 1.32 1.35 1.23 1.08 1.01 1.12 1.01 1.04 1.04 1.06 1.08 1.27 1.42 1.57 1.45 1.28 0.97 0.88 0.89 1.12 1.37 1.53 1.44 0.75 0.64 0.82 0.80 0.81 0.71 0.68 0.76 0.67 0.61
1.77 1.97 1.94 1.50 1.61 1.73 1.81 1.67 1.92 1.82 1.64 1.49 1.36 1.22 1.12 1.10 1.15 1.07 1.12 1.17 1.28 1.61 1.65 1.44 1.34 1.20 1.18 1.06 1.33 1.62 1.56 1.56 1.43 1.00 0.92 1.02 0.82 0.86 0.82 0.79 0.86 0.73 0.73
1.66 1.76 1.93 2.10 2.12 2.29 2.12 1.69 1.66 1.55 1.56 1.52 1.47 1.42 1.30 1.20 1.24 1.30 1.25 1.43 1.39 1.29 1.23 1.22 1.26 1.20 1.19 1.20 1.35 1.62 1.56 1.62 1.41 1.05 0.91 0.97 0.66 0.77 0.81 0.83 1.02 0.78 0.64
1.26 1.32 1.10 1.04 1.11 1.01 1.18 1.08 1.02 0.88 0.80 0.81 0.90 0.96 1.08 1.09 1.26 1.27 1.20 1.27 1.03 0.96 1.09 1.09 1.05 1.03 1.03 0.95 0.91 1.21 1.44 1.40 1.34 1.00 0.84 0.88 0.72 0.69 0.69 0.65 0.69 0.73 0.64
0.91 0.87 0.73 0.54 0.59 0.61 0.72 0.75 0.77 0.70 0.56 0.53 0.54 0.53 0.66 0.59 0.77 1.01 0.79 0.69 0.78 0.73 0.79 0.74 0.67 0.65 0.67 0.76 0.92 0.95 1.34 2.01 1.58 1.34 0.78 1.18 0.92 0.79 1.11 0.58 0.56 0.62 0.55

GFSMA_prec_precacc_162.txt.gz
Total_Precipitation_Accumulation
0.15 0.15 0.09 0.05 0.03 0.03 0.02 0.02 0.00 0.00 0.00 0.00 0.00 0.00 0.00 0.00 0.00 0.00 0.00 0.00 0.00 0.00 0.00 0.01 0.02 0.02 0.04 0.07 0.11 0.13 0.14 0.12 0.10 0.09 0.09 0.09 0.09 0.11 0.12 0.14 0.16 0.16 0.16
0.12 0.12 0.07 0.05 0.04 0.04 0.02 0.02 0.02 0.01 0.01 0.01 0.00 0.00 0.00 0.00 0.00 0.00 0.00 0.00 0.00 0.00 0.00 0.01 0.04 0.02 0.03 0.05 0.07 0.12 0.11 0.10 0.09 0.09 0.09 0.09 0.10 0.11 0.13 0.15 0.18 0.20 0.21
0.18 0.16 0.13 0.11 0.07 0.09 0.12 0.09 0.05 0.03 0.04 0.03 0.02 0.02 0.00 0.00 0.00 0.00 0.00 0.00 0.00 0.00 0.00 0.03 0.22 0.20 0.12 0.15 0.31 0.28 0.20 0.19 0.20 0.20 0.21 0.24 0.21 0.18 0.19 0.21 0.23 0.20 0.19
0.15 0.22 0.21 0.10 0.27 0.32 0.33 0.24 0.21 0.11 0.06 0.08 0.06 0.04 0.03 0.01 0.01 0.01 0.00 0.00 0.00 0.00 0.00 0.00 0.10 0.31 0.45 0.46 0.65 0.93 0.73 0.50 0.36 0.27 0.22 0.22 0.23 0.25 0.25 0.23 0.21 0.22 0.23
0.11 0.14 0.17 0.19 0.30 0.35 0.36 0.31 0.33 0.28 0.21 0.22 0.25 0.18 0.07 0.03 0.04 0.05 0.04 0.00 0.00 0.00 0.00 0.00 0.00 0.05 0.16 0.28 0.40 0.67 1.11 0.78 0.47 0.43 0.34 0.28 0.25 0.24 0.24 0.26 0.27 0.28 0.28
0.29 0.26 0.19 0.16 0.29 0.23 0.22 0.24 0.23 0.28 0.27 0.30 0.27 0.24 0.22 0.20 0.17 0.13 0.12 0.09 0.03 0.01 0.00 0.00 0.00 0.00 0.00 0.02 0.12 0.28 0.53 0.85 0.57 0.38 0.31 0.27 0.25 0.27 0.29 0.29 0.30 0.30 0.29
0.39 0.36 0.23 0.18 0.23 0.16 0.12 0.21 0.21 0.21 0.21 0.24 0.28 0.26 0.28 0.47 0.67 0.69 0.57 0.47 0.24 0.12 0.11 0.02 0.03 0.06 0.03 0.05 0.04 0.05 0.15 0.30 0.43 0.51 0.58 0.66 0.55 0.41 0.36 0.34 0.40 0.42 0.42
0.78 0.45 0.30 0.33 0.25 0.16 0.15 0.16 0.22 0.19 0.14 0.15 0.21 0.21 0.19 0.15 0.25 0.41 0.45 0.32 0.24 0.20 0.19 0.22 0.20 0.17 0.08 0.04 0.04 0.04 0.05 0.09 0.29 0.42 0.44 0.53 0.74 0.63 0.55 0.48 0.50 0.51 0.54
1.48 1.09 0.86 0.79 0.65 0.48 0.52 0.42 0.51 0.51 0.41 0.34 0.32 0.43 0.35 0.21 0.16 0.08 0.11 0.14 0.19 0.17 0.16 0.15 0.18 0.17 0.11 0.07 0.09 0.11 0.14 0.18 0.32 0.51 0.48 0.47 0.57 0.66 0.73 0.77 0.84 0.83 0.86
1.52 1.71 1.74 1.52 1.31 1.27 1.13 1.16 1.02 1.12 1.20 1.07 0.89 0.72 0.69 0.53 0.46 0.26 0.09 0.09 0.09 0.09 0.10 0.08 0.07 0.10 0.16 0.21 0.29 0.37 0.40 0.41 0.41 0.51 0.77 0.84 0.86 0.94 1.00 1.12 1.26 1.39 1.34
1.22 1.46 1.64 1.80 1.81 1.89 1.87 1.95 1.88 1.70 1.51 1.33 1.10 0.99 0.88 0.87 0.82 0.92 0.69 0.35 0.26 0.14 0.09 0.10 0.12 0.14 0.20 0.31 0.39 0.44 0.47 0.47 0.52 0.60 0.85 1.02 1.09 1.12 1.29 1.63 1.84 1.91 1.89
1.50 1.65 1.87 1.85 1.87 1.65 1.48 1.60 1.73 1.47 1.17 0.98 0.88 0.95 1.03 1.02 0.87 0.91 0.85 0.49 0.37 0.21 0.14 0.12 0.12 0.12 0.14 0.23 0.37 0.50 0.60 0.64 0.75 0.82 0.97 1.25 1.34 1.47 1.76 2.10 2.28 2.51 2.55
0.93 0.97 1.02 1.25 1.29 1.14 0.93 0.91 0.94 0.90 0.84 0.76 0.76 0.71 0.74 0.73 0.71 0.73 0.75 0.57 0.44 0.31 0.28 0.23 0.21 0.21 0.22 0.25 0.38 0.61 0.71 0.82 0.88 0.95 1.18 1.38 1.24 1.22 1.25 1.23 1.36 1.90 2.29
0.55 0.62 0.60 0.79 0.87 0.83 0.76 0.60 0.56 0.62 0.72 0.85 0.85 0.75 0.69 0.61 0.65 0.69 0.70 0.76 0.67 0.42 0.32 0.25 0.23 0.33 0.48 0.65 0.80 0.88 0.76 0.82 0.83 0.90 0.93 0.89 0.70 0.62 0.55 0.58 0.70 0.82 1.17
0.66 0.54 0.71 0.70 0.65 0.65 0.61 0.57 0.54 0.55 0.59 0.62 0.68 0.80 0.82 0.74 0.79 0.84 0.92 1.11 1.49 1.34 0.89 0.65 0.70 0.75 0.85 0.88 0.88 0.82 0.73 0.77 0.64 0.46 0.36 0.29 0.25 0.26 0.29 0.32 0.34 0.48 0.61
0.84 0.69 0.57 0.65 0.72 0.64 0.66 0.51 0.41 0.38 0.49 0.56 0.59 0.65 0.68 0.67 0.72 0.83 0.99 1.11 1.35 1.71 1.55 0.75 0.73 0.81 0.89 0.89 0.84 0.69 0.50 0.50 0.38 0.32 0.29 0.28 0.24 0.25 0.24 0.23 0.25 0.33 0.47
0.72 0.70 0.65 0.55 0.51 0.53 0.47 0.53 0.34 0.29 0.30 0.32 0.38 0.43 0.43 0.52 0.56 0.62 0.71 0.83 1.02 1.32 1.48 0.86 0.66 0.54 0.46 0.31 0.24 0.27 0.24 0.18 0.17 0.25 0.27 0.28 0.25 0.23 0.21 0.21 0.24 0.29 0.38
0.63 0.64 0.59 0.68 0.62 0.56 0.54 0.51 0.44 0.32 0.28 0.24 0.24 0.27 0.30 0.36 0.41 0.51 0.60 0.65 0.75 0.84 0.99 0.71 0.35 0.27 0.23 0.18 0.17 0.21 0.20 0.19 0.17 0.24 0.29 0.27 0.29 0.32 0.33 0.31 0.31 0.34 0.39
0.75 0.64 0.66 0.61 0.53 0.61 0.62 0.59 0.54 0.57 0.52 0.44 0.41 0.42 0.44 0.55 0.57 0.65 0.80 0.83 0.83 0.82 0.83 0.86 0.56 0.35 0.29 0.29 0.36 0.39 0.38 0.38 0.35 0.47 0.52 0.53 0.58 0.59 0.59 0.60 0.66 0.73 0.73
1.17 0.84 0.79 0.83 0.90 0.78 0.73 0.76 0.73 0.70 0.62 0.58 0.55 0.58 0.65 0.68 0.68 0.70 0.75 0.74 0.80 0.86 0.93 0.94 0.87 0.74 0.59 0.49 0.64 0.61 0.54 0.47 0.47 0.56 0.72 0.68 0.71 0.71 0.71 0.73 0.75 0.67 0.61
1.31 1.22 1.08 1.11 1.10 1.26 1.27 1.25 1.16 1.08 1.07 1.05 1.01 0.92 0.80 0.83 0.84 0.80 0.81 0.77 0.94 1.10 1.28 1.45 1.36 1.26 1.19 1.04 0.91 0.84 0.99 0.90 0.87 0.73 0.65 0.67 0.76 0.87 0.93 1.05 1.02 0.97 0.91
1.38 1.63 1.36 1.28 1.28 1.16 1.49 1.55 1.43 1.27 1.32 1.35 1.23 1.08 1.01 1.12 1.01 1.05 1.04 1.06 1.09 1.27 1.42 1.57 1.46 1.28 0.98 0.89 0.89 1.12 1.39 1.55 1.49 0.79 0.71 0.93 0.99 1.08 1.03 1.04 1.19 1.10 1.03
1.77 1.97 1.94 1.50 1.61 1.73 1.81 1.67 1.92 1.82 1.64 1.49 1.36 1.22 1.12 1.10 1.16 1.07 1.12 1.17 1.28 1.61 1.65 1.44 1.34 1.20 1.19 1.07 1.34 1.64 1.69 1.77 1.64 1.15 1.06 1.26 1.13 1.24 1.19 1.16 1.25 1.07 0.99
1.66 1.76 1.93 2.10 2.12 2.29 2.12 1.69 1.66 1.55 1.56 1.52 1.47 1.42 1.30 1.20 1.24 1.30 1.25 1.43 1.39 1.29 1.23 1.22 1.27 1.21 1.23 1.25 1.39 1.64 1.58 1.68 1.52 1.18 1.02 1.10 0.83 0.97 1.05 1.12 1.32 1.02 0.85
1.26 1.32 1.10 1.04 1.11 1.01 1.18 1.09 1.02 0.88 0.80 0.81 0.90 0.96 1.08 1.09 1.26 1.27 1.20 1.27 1.03 0.96 1.09 1.10 1.05 1.03 1.04 0.97 0.92 1.22 1.45 1.41 1.35 1.01 0.85 0.91 0.77 0.78 0.80 0.76 0.81 0.90 0.80
0.91 0.87 0.73 0.54 0.59 0.61 0.72 0.76 0.77 0.70 0.56 0.53 0.54 0.53 0.66 0.59 0.77 1.01 0.79 0.69 0.78 0.73 0.79 0.75 0.67 0.66 0.68 0.77 0.93 0.96 1.34 2.01 1.58 1.35 0.79 1.19 0.93 0.81 1.15 0.62 0.64 0.73 0.64

GFSMA_prec_precacc_165.txt.gz
Total_Precipitation_Accumulation
0.15 0.16 0.11 0.09 0.08 0.09 0.09 0.10 0.06 0.03 0.02 0.01 0.00 0.00 0.00 0.00 0.00 0.00 0.00 0.00 0.00 0.00 0.00 0.01 0.03 0.03 0.04 0.07 0.11 0.13 0.14 0.12 0.10 0.09 0.09 0.09 0.09 0.11 0.12 0.14 0.16 0.16 0.16
0.12 0.12 0.07 0.06 0.05 0.06 0.05 0.08 0.09 0.05 0.03 0.04 0.01 0.00 0.00 0.00 0.00 0.00 0.00 0.00 0.00 0.00 0.00 0.01 0.04 0.02 0.04 0.05 0.08 0.12 0.12 0.10 0.09 0.09 0.09 0.09 0.10 0.11 0.13 0.16 0.19 0.20 0.22
0.18 0.16 0.13 0.11 0.07 0.10 0.14 0.13 0.09 0.08 0.06 0.04 0.03 0.05 0.03 0.01 0.00 0.00 0.00 0.00 0.00 0.00 0.00 0.03 0.22 0.20 0.12 0.16 0.32 0.29 0.21 0.20 0.21 0.20 0.21 0.24 0.24 0.23 0.22 0.22 0.23 0.20 0.19
0.15 0.22 0.21 0.10 0.27 0.32 0.34 0.26 0.24 0.14 0.08 0.09 0.06 0.04 0.05 0.08 0.04 0.02 0.00 0.00 0.00 0.00 0.00 0.00 0.10 0.31 0.45 0.46 0.65 0.94 0.75 0.51 0.37 0.28 0.23 0.22 0.24 0.26 0.26 0.23 0.21 0.22 0.23
0.11 0.14 0.17 0.19 0.30 0.35 0.36 0.31 0.34 0.31 0.25 0.24 0.25 0.18 0.08 0.05 0.09 0.10 0.08 0.05 0.02 0.01 0.00 0.00 0.00 0.05 0.16 0.28 0.40 0.68 1.12 0.79 0.47 0.43 0.34 0.28 0.26 0.25 0.25 0.26 0.28 0.28 0.28
0.29 0.26 0.19 0.16 0.29 0.23 0.22 0.24 0.23 0.28 0.31 0.35 0.31 0.26 0.23 0.21 0.20 0.17 0.17 0.14 0.09 0.10 0.13 0.11 0.05 0.00 0.00 0.02 0.12 0.28 0.53 0.86 0.58 0.38 0.32 0.27 0.25 0.28 0.30 0.30 0.30 0.30 0.29
0.39 0.36 0.23 0.18 0.23 0.16 0.12 0.21 0.21 0.21 0.21 0.27 0.33 0.31 0.31 0.50 0.69 0.70 0.59 0.51 0.44 0.40 0.40 0.30 0.17 0.10 0.04 0.05 0.04 0.05 0.15 0.30 0.43 0.52 0.59 0.67 0.56 0.42 0.36 0.34 0.40 0.42 0.42
0.78 0.45 0.30 0.33 0.25 0.16 0.15 0.16 0.22 0.19 0.14 0.15 0.23 0.24 0.22 0.17 0.27 0.42 0.45 0.32 0.24 0.21 0.20 0.28 0.38 0.33 0.17 0.08 0.05 0.05 0.06 0.09 0.29 0.43 0.46 0.54 0.76 0.64 0.55 0.48 0.50 0.51 0.54
1.48 1.09 0.86 0.79 0.65 0.48 0.52 0.42 0.51 0.51 0.41 0.34 0.32 0.44 0.36 0.22 0.16 0.09 0.12 0.15 0.19 0.18 0.16 0.16 0.19 0.22 0.21 0.16 0.14 0.14 0.16 0.18 0.32 0.51 0.48 0.48 0.58 0.68 0.74 0.78 0.84 0.84 0.87
1.52 1.71 1.74 1.52 1.31 1.27 1.13 1.16 1.02 1.12 1.20 1.07 0.89 0.73 0.70 0.54 0.48 0.28 0.11 0.12 0.11 0.09 0.10 0.09 0.08 0.13 0.20 0.25 0.34 0.42 0.46 0.46 0.43 0.51 0.77 0.84 0.87 0.95 1.00 1.13 1.27 1.41 1.35
1.22 1.46 1.64 1.80 1.81 1.89 1.88 1.95 1.88 1.70 1.51 1.33 1.10 0.99 0.88 0.87 0.84 0.95 0.70 0.36 0.27 0.15 0.09 0.10 0.12 0.14 0.20 0.31 0.39 0.45 0.49 0.49 0.53 0.61 0.85 1.02 1.09 1.12 1.30 1.65 1.87 1.92 1.91
1.50 1.65 1.88 1.85 1.87 1.66 1.48 1.61 1.73 1.47 1.17 0.98 0.88 0.95 1.03 1.02 0.87 0.92 0.87 0.50 0.37 0.21 0.15 0.12 0.13 0.14 0.15 0.23 0.37 0.50 0.60 0.64 0.75 0.83 0.97 1.25 1.34 1.47 1.76 2.12 2.31 2.54 2.57
0.93 0.97 1.02 1.25 1.29 1.14 0.93 0.91 0.95 0.91 0.84 0.76 0.76 0.71 0.74 0.73 0.71 0.73 0.75 0.58 0.46 0.32 0.29 0.23 0.23 0.23 0.23 0.27 0.39 0.61 0.71 0.82 0.88 0.95 1.18 1.40 1.27 1.27 1.28 1.26 1.39 1.94 2.32
0.55 0.63 0.61 0.79 0.87 0.83 0.76 0.60 0.57 0.64 0.73 0.86 0.85 0.75 0.69 0.61 0.65 0.69 0.70 0.76 0.67 0.42 0.32 0.25 0.23 0.33 0.48 0.65 0.81 0.88 0.76 0.82 0.83 0.90 0.93 0.90 0.72 0.66 0.58 0.61 0.73 0.88 1.24
0.66 0.54 0.71 0.70 0.66 0.65 0.61 0.57 0.54 0.56 0.60 0.63 0.69 0.80 0.82 0.74 0.79 0.84 0.93 1.11 1.49 1.34 0.89 0.65 0.70 0.75 0.85 0.88 0.88 0.83 0.74 0.77 0.64 0.46 0.36 0.30 0.25 0.26 0.30 0.32 0.35 0.50 0.63
0.84 0.69 0.57 0.65 0.72 0.64 0.66 0.51 0.41 0.39 0.49 0.56 0.59 0.65 0.68 0.67 0.73 0.84 1.01 1.12 1.37 1.72 1.55 0.75 0.73 0.81 0.89 0.89 0.84 0.69 0.50 0.50 0.38 0.32 0.29 0.28 0.24 0.25 0.24 0.24 0.26 0.36 0.51
0.72 0.70 0.65 0.55 0.51 0.53 0.47 0.53 0.35 0.29 0.30 0.32 0.38 0.43 0.43 0.52 0.56 0.62 0.72 0.83 1.02 1.33 1.48 0.86 0.66 0.54 0.46 0.31 0.24 0.27 0.24 0.18 0.17 0.25 0.27 0.28 0.26 0.24 0.23 0.23 0.26 0.30 0.39
0.63 0.64 0.59 0.68 0.62 0.56 0.54 0.51 0.44 0.32 0.28 0.24 0.25 0.28 0.31 0.37 0.42 0.52 0.61 0.65 0.76 0.85 0.99 0.71 0.35 0.27 0.23 0.18 0.17 0.21 0.20 0.19 0.18 0.25 0.30 0.28 0.31 0.34 0.35 0.34 0.35 0.38 0.43
0.75 0.64 0.66 0.61 0.53 0.61 0.62 0.59 0.54 0.57 0.52 0.44 0.41 0.42 0.44 0.55 0.57 0.65 0.80 0.83 0.83 0.82 0.83 0.86 0.56 0.35 0.29 0.29 0.36 0.39 0.38 0.38 0.35 0.47 0.55 0.57 0.62 0.63 0.64 0.65 0.71 0.76 0.78
1.17 0.84 0.79 0.83 0.90 0.78 0.73 0.76 0.73 0.70 0.62 0.58 0.55 0.58 0.65 0.68 0.68 0.70 0.75 0.74 0.80 0.86 0.93 0.94 0.87 0.74 0.59 0.49 0.64 0.61 0.54 0.47 0.47 0.57 0.73 0.72 0.77 0.78 0.78 0.78 0.80 0.71 0.67
1.31 1.22 1.08 1.11 1.10 1.26 1.27 1.25 1.16 1.08 1.07 1.05 1.01 0.92 0.80 0.83 0.85 0.80 0.81 0.77 0.95 1.10 1.28 1.46 1.36 1.26 1.19 1.04 0.91 0.84 0.99 0.90 0.87 0.73 0.65 0.70 0.79 0.90 0.96 1.08 1.04 0.99 0.97
1.38 1.63 1.36 1.28 1.28 1.16 1.50 1.55 1.43 1.27 1.32 1.35 1.23 1.08 1.01 1.12 1.01 1.05 1.05 1.06 1.09 1.27 1.43 1.57 1.46 1.28 0.98 0.89 0.89 1.12 1.39 1.55 1.49 0.79 0.72 0.93 1.01 1.12 1.08 1.09 1.25 1.15 1.09
1.77 1.97 1.94 1.50 1.61 1.73 1.81 1.67 1.92 1.82 1.64 1.49 1.36 1.22 1.12 1.10 1.16 1.07 1.13 1.17 1.29 1.62 1.65 1.44 1.34 1.20 1.19 1.07 1.34 1.64 1.69 1.77 1.65 1.15 1.09 1.30 1.19 1.29 1.27 1.26 1.34 1.13 1.07
1.66 1.76 1.93 2.10 2.12 2.29 2.12 1.69 1.67 1.55 1.56 1.52 1.47 1.42 1.30 1.20 1.24 1.30 1.25 1.43 1.39 1.29 1.23 1.22 1.27 1.21 1.23 1.25 1.39 1.64 1.58 1.68 1.52 1.19 1.04 1.15 0.87 0.98 1.07 1.16 1.43 1.16 1.03
1.26 1.32 1.10 1.04 1.11 1.01 1.18 1.09 1.02 0.88 0.80 0.81 0.90 0.96 1.08 1.09 1.26 1.28 1.20 1.27 1.03 0.96 1.09 1.10 1.05 1.03 1.04 0.97 0.92 1.22 1.45 1.41 1.35 1.01 0.85 0.92 0.78 0.79 0.81 0.78 0.85 0.96 0.87
0.91 0.87 0.73 0.54 0.59 0.61 0.72 0.76 0.77 0.70 0.56 0.53 0.54 0.53 0.66 0.59 0.77 1.01 0.79 0.69 0.78 0.73 0.79 0.75 0.67 0.66 0.68 0.77 0.93 0.96 1.34 2.01 1.58 1.35 0.79 1.19 0.93 0.81 1.15 0.62 0.65 0.73 0.64

GFSMA_prec_precacc_168.txt.gz
Total_Precipitation_Accumulation
0.15 0.16 0.11 0.11 0.10 0.14 0.15 0.18 0.15 0.09 0.07 0.02 0.00 0.00 0.00 0.00 0.00 0.00 0.00 0.00 0.00 0.00 0.00 0.01 0.03 0.03 0.04 0.07 0.11 0.13 0.14 0.12 0.10 0.09 0.09 0.09 0.09 0.11 0.12 0.14 0.16 0.16 0.16
0.12 0.12 0.07 0.06 0.05 0.07 0.07 0.12 0.16 0.14 0.12 0.13 0.05 0.02 0.00 0.00 0.00 0.00 0.00 0.00 0.00 0.00 0.00 0.01 0.04 0.03 0.05 0.06 0.08 0.12 0.12 0.10 0.09 0.09 0.09 0.09 0.10 0.11 0.13 0.16 0.20 0.21 0.23
0.18 0.16 0.13 0.11 0.07 0.10 0.15 0.15 0.13 0.14 0.13 0.13 0.13 0.16 0.11 0.05 0.01 0.00 0.00 0.00 0.00 0.00 0.00 0.03 0.22 0.20 0.12 0.16 0.36 0.33 0.23 0.20 0.21 0.21 0.21 0.24 0.24 0.24 0.23 0.24 0.26 0.20 0.20
0.15 0.22 0.21 0.10 0.27 0.32 0.34 0.26 0.25 0.16 0.11 0.14 0.11 0.10 0.12 0.18 0.16 0.09 0.04 0.01 0.00 0.00 0.00 0.00 0.10 0.31 0.45 0.46 0.65 0.95 0.80 0.54 0.38 0.28 0.23 0.23 0.24 0.27 0.27 0.24 0.24 0.24 0.23
0.11 0.14 0.17 0.19 0.30 0.35 0.36 0.31 0.34 0.31 0.26 0.27 0.28 0.22 0.12 0.09 0.15 0.19 0.16 0.11 0.04 0.02 0.01 0.01 0.02 0.05 0.16 0.28 0.40 0.68 1.13 0.80 0.49 0.44 0.34 0.28 0.26 0.26 0.26 0.27 0.29 0.29 0.29
0.29 0.26 0.19 0.16 0.29 0.23 0.22 0.24 0.23 0.28 0.31 0.35 0.34 0.30 0.28 0.26 0.23 0.21 0.25 0.22 0.16 0.15 0.15 0.13 0.10 0.05 0.02 0.03 0.12 0.28 0.53 0.86 0.58 0.39 0.32 0.27 0.25 0.28 0.30 0.30 0.31 0.30 0.29
0.39 0.36 0.23 0.18 0.23 0.16 0.12 0.21 0.21 0.21 0.21 0.27 0.34 0.32 0.32 0.53 0.74 0.76 0.65 0.55 0.49 0.47 0.48 0.34 0.21 0.13 0.05 0.06 0.05 0.06 0.15 0.30 0.43 0.52 0.59 0.67 0.56 0.42 0.36 0.34 0.40 0.42 0.42
0.78 0.45 0.30 0.33 0.25 0.16 0.15 0.16 0.22 0.19 0.14 0.15 0.23 0.25 0.22 0.19 0.30 0.44 0.47 0.34 0.25 0.27 0.24 0.31 0.39 0.33 0.17 0.08 0.05 0.05 0.06 0.09 0.29 0.43 0.46 0.54 0.76 0.65 0.56 0.49 0.50 0.51 0.54
1.48 1.09 0.86 0.79 0.65 0.48 0.52 0.42 0.51 0.51 0.41 0.34 0.32 0.44 0.36 0.23 0.17 0.10 0.13 0.16 0.20 0.19 0.18 0.18 0.20 0.23 0.21 0.16 0.14 0.14 0.16 0.20 0.33 0.52 0.49 0.49 0.59 0.69 0.74 0.78 0.84 0.84 0.87
1.52 1.71 1.74 1.52 1.31 1.27 1.13 1.16 1.02 1.12 1.20 1.07 0.89 0.73 0.70 0.55 0.49 0.28 0.14 0.18 0.18 0.16 0.16 0.11 0.10 0.16 0.23 0.27 0.36 0.46 0.51 0.52 0.49 0.52 0.77 0.84 0.88 0.96 1.01 1.15 1.29 1.41 1.35
1.22 1.46 1.64 1.81 1.81 1.90 1.88 1.96 1.89 1.71 1.51 1.34 1.10 0.99 0.88 0.87 0.84 0.95 0.70 0.36 0.28 0.19 0.16 0.15 0.14 0.16 0.22 0.32 0.40 0.45 0.51 0.51 0.56 0.61 0.85 1.03 1.10 1.13 1.30 1.66 1.88 1.95 1.92
1.50 1.65 1.88 1.85 1.87 1.66 1.49 1.61 1.73 1.47 1.17 0.99 0.90 0.96 1.04 1.02 0.87 0.92 0.87 0.50 0.37 0.21 0.15 0.13 0.15 0.17 0.18 0.27 0.39 0.51 0.60 0.64 0.76 0.83 0.99 1.29 1.39 1.50 1.77 2.13 2.34 2.59 2.62
0.94 0.97 1.02 1.25 1.29 1.14 0.93 0.91 0.95 0.91 0.85 0.78 0.80 0.74 0.75 0.73 0.71 0.73 0.75 0.58 0.46 0.32 0.29 0.23 0.23 0.24 0.25 0.29 0.43 0.62 0.72 0.83 0.88 0.95 1.20 1.45 1.32 1.33 1.34 1.32 1.44 1.99 2.37
0.55 0.63 0.61 0.79 0.87 0.83 0.76 0.60 0.57 0.64 0.74 0.87 0.89 0.79 0.71 0.61 0.65 0.69 0.70 0.76 0.67 0.42 0.32 0.25 0.23 0.33 0.48 0.66 0.81 0.90 0.76 0.82 0.83 0.90 0.93 0.90 0.72 0.67 0.60 0.64 0.79 0.95 1.32
0.66 0.54 0.71 0.70 0.66 0.65 0.61 0.57 0.54 0.56 0.61 0.64 0.71 0.83 0.84 0.74 0.79 0.84 0.93 1.12 1.49 1.35 0.89 0.65 0.70 0.75 0.85 0.89 0.88 0.83 0.74 0.77 0.64 0.46 0.36 0.30 0.25 0.26 0.30 0.32 0.35 0.50 0.64
0.84 0.69 0.57 0.65 0.72 0.64 0.66 0.51 0.41 0.39 0.50 0.56 0.59 0.66 0.68 0.68 0.73 0.84 1.02 1.14 1.39 1.74 1.56 0.75 0.73 0.81 0.89 0.89 0.84 0.69 0.50 0.50 0.38 0.32 0.29 0.28 0.24 0.25 0.24 0.24 0.27 0.37 0.52
0.72 0.70 0.65 0.55 0.51 0.53 0.47 0.53 0.35 0.30 0.30 0.32 0.38 0.43 0.43 0.52 0.56 0.62 0.72 0.83 1.02 1.34 1.49 0.87 0.66 0.54 0.46 0.31 0.24 0.27 0.24 0.18 0.17 0.25 0.27 0.28 0.26 0.24 0.23 0.23 0.27 0.32 0.41
0.63 0.64 0.59 0.68 0.62 0.56 0.54 0.51 0.44 0.32 0.28 0.24 0.25 0.28 0.31 0.38 0.42 0.52 0.61 0.66 0.76 0.85 1.00 0.72 0.35 0.27 0.23 0.18 0.17 0.21 0.20 0.19 0.18 0.25 0.30 0.28 0.31 0.34 0.35 0.34 0.35 0.39 0.44
0.75 0.64 0.66 0.61 0.53 0.61 0.62 0.59 0.54 0.57 0.52 0.44 0.41 0.42 0.44 0.55 0.57 0.65 0.80 0.83 0.83 0.82 0.83 0.86 0.56 0.35 0.29 0.29 0.36 0.39 0.38 0.38 0.35 0.48 0.55 0.57 0.62 0.63 0.64 0.65 0.71 0.77 0.78
1.17 0.84 0.79 0.83 0.90 0.78 0.73 0.76 0.73 0.70 0.62 0.58 0.55 0.58 0.65 0.68 0.68 0.70 0.75 0.74 0.80 0.86 0.93 0.94 0.87 0.74 0.59 0.49 0.64 0.61 0.54 0.47 0.47 0.57 0.73 0.72 0.77 0.78 0.78 0.79 0.80 0.72 0.67
1.31 1.22 1.08 1.11 1.10 1.26 1.27 1.26 1.16 1.08 1.07 1.05 1.01 0.92 0.80 0.83 0.85 0.80 0.82 0.77 0.95 1.11 1.28 1.46 1.37 1.26 1.19 1.04 0.91 0.84 0.99 0.90 0.87 0.73 0.65 0.70 0.79 0.90 0.96 1.08 1.04 0.99 0.97
1.38 1.63 1.36 1.28 1.28 1.16 1.50 1.55 1.44 1.27 1.32 1.35 1.23 1.08 1.02 1.13 1.02 1.06 1.05 1.07 1.09 1.27 1.43 1.58 1.46 1.29 0.98 0.89 0.89 1.12 1.39 1.55 1.49 0.79 0.72 0.93 1.01 1.12 1.09 1.09 1.26 1.16 1.11
1.77 1.97 1.94 1.50 1.61 1.73 1.81 1.67 1.92 1.82 1.64 1.49 1.36 1.22 1.12 1.10 1.16 1.07 1.13 1.18 1.29 1.62 1.66 1.44 1.34 1.20 1.19 1.07 1.34 1.64 1.70 1.77 1.65 1.15 1.09 1.30 1.19 1.29 1.27 1.26 1.35 1.14 1.08
1.66 1.76 1.93 2.10 2.12 2.29 2.12 1.69 1.67 1.55 1.56 1.52 1.47 1.42 1.30 1.20 1.24 1.30 1.25 1.43 1.39 1.29 1.23 1.23 1.27 1.21 1.23 1.25 1.39 1.64 1.58 1.68 1.53 1.19 1.04 1.15 0.87 0.98 1.07 1.16 1.44 1.17 1.03
1.26 1.32 1.10 1.04 1.11 1.01 1.18 1.09 1.02 0.88 0.80 0.81 0.90 0.96 1.08 1.09 1.27 1.28 1.20 1.27 1.03 0.96 1.09 1.10 1.05 1.03 1.04 0.97 0.92 1.22 1.45 1.41 1.35 1.01 0.85 0.92 0.78 0.79 0.81 0.78 0.85 0.96 0.87
0.91 0.87 0.73 0.54 0.59 0.61 0.72 0.76 0.77 0.70 0.56 0.53 0.54 0.53 0.66 0.59 0.77 1.01 0.79 0.69 0.78 0.73 0.79 0.75 0.67 0.66 0.68 0.77 0.93 0.96 1.34 2.01 1.58 1.35 0.79 1.19 0.93 0.81 1.15 0.62 0.65 0.73 0.64

GFSMA_prec_precacc_171.txt.gz
Total_Precipitation_Accumulation
0.15 0.16 0.11 0.11 0.10 0.15 0.17 0.21 0.19 0.14 0.13 0.10 0.07 0.03 0.00 0.00 0.00 0.00 0.00 0.00 0.00 0.00 0.00 0.01 0.03 0.03 0.04 0.07 0.11 0.13 0.14 0.12 0.10 0.09 0.09 0.09 0.09 0.11 0.12 0.14 0.16 0.17 0.17
0.12 0.12 0.07 0.06 0.05 0.07 0.07 0.12 0.17 0.16 0.16 0.18 0.10 0.12 0.09 0.05 0.02 0.00 0.00 0.00 0.00 0.00 0.00 0.01 0.04 0.03 0.05 0.07 0.08 0.12 0.12 0.10 0.09 0.09 0.09 0.09 0.10 0.11 0.13 0.16 0.20 0.23 0.24
0.18 0.16 0.13 0.11 0.07 0.10 0.15 0.15 0.13 0.14 0.14 0.16 0.18 0.23 0.25 0.18 0.14 0.09 0.05 0.01 0.00 0.00 0.00 0.03 0.22 0.20 0.12 0.16 0.36 0.33 0.23 0.20 0.21 0.21 0.21 0.24 0.24 0.24 0.23 0.24 0.26 0.21 0.21
0.15 0.22 0.21 0.10 0.27 0.32 0.34 0.26 0.25 0.16 0.11 0.14 0.12 0.14 0.17 0.28 0.27 0.19 0.16 0.10 0.02 0.00 0.01 0.01 0.10 0.31 0.45 0.46 0.65 0.95 0.80 0.54 0.38 0.28 0.23 0.23 0.24 0.27 0.27 0.24 0.24 0.24 0.24
0.11 0.14 0.17 0.19 0.30 0.35 0.36 0.31 0.34 0.31 0.26 0.27 0.28 0.23 0.16 0.15 0.23 0.30 0.27 0.22 0.13 0.07 0.02 0.02 0.03 0.07 0.17 0.28 0.40 0.68 1.13 0.81 0.50 0.45 0.34 0.28 0.26 0.26 0.26 0.27 0.29 0.29 0.29
0.29 0.26 0.19 0.16 0.29 0.23 0.22 0.24 0.23 0.28 0.31 0.35 0.34 0.30 0.28 0.28 0.27 0.26 0.34 0.37 0.34 0.28 0.21 0.16 0.11 0.08 0.08 0.06 0.12 0.28 0.53 0.87 0.60 0.40 0.32 0.28 0.25 0.28 0.30 0.30 0.31 0.30 0.29
0.39 0.36 0.23 0.18 0.23 0.16 0.12 0.21 0.21 0.21 0.21 0.27 0.34 0.32 0.32 0.53 0.75 0.77 0.68 0.61 0.59 0.56 0.62 0.47 0.27 0.16 0.10 0.11 0.06 0.06 0.15 0.30 0.44 0.54 0.61 0.69 0.57 0.42 0.36 0.34 0.41 0.42 0.42
0.78 0.45 0.30 0.33 0.25 0.16 0.15 0.16 0.22 0.19 0.14 0.15 0.23 0.25 0.22 0.19 0.30 0.44 0.47 0.35 0.26 0.35 0.38 0.47 0.54 0.40 0.20 0.09 0.06 0.07 0.07 0.09 0.29 0.44 0.48 0.57 0.80 0.69 0.58 0.50 0.51 0.51 0.54
1.48 1.09 0.86 0.79 0.65 0.48 0.52 0.42 0.51 0.51 0.41 0.34 0.32 0.44 0.36 0.23 0.18 0.11 0.14 0.18 0.22 0.21 0.21 0.21 0.25 0.27 0.23 0.16 0.16 0.16 0.18 0.22 0.34 0.52 0.50 0.52 0.64 0.75 0.78 0.81 0.87 0.85 0.88
1.52 1.71 1.74 1.52 1.31 1.27 1.13 1.16 1.02 1.12 1.21 1.07 0.90 0.73 0.70 0.55 0.49 0.28 0.15 0.22 0.24 0.23 0.25 0.21 0.17 0.23 0.31 0.32 0.40 0.49 0.55 0.56 0.54 0.53 0.78 0.88 0.93 1.02 1.06 1.23 1.35 1.48 1.38
1.22 1.46 1.64 1.81 1.81 1.90 1.88 1.96 1.89 1.71 1.52 1.34 1.11 1.00 0.89 0.88 0.85 0.97 0.71 0.36 0.29 0.21 0.21 0.22 0.21 0.21 0.26 0.34 0.41 0.46 0.52 0.53 0.58 0.62 0.86 1.06 1.17 1.20 1.40 1.79 2.02 2.07 2.05
1.50 1.65 1.88 1.85 1.87 1.66 1.49 1.61 1.73 1.47 1.17 0.99 0.91 0.98 1.06 1.05 0.90 0.95 0.90 0.50 0.37 0.21 0.16 0.14 0.16 0.18 0.19 0.27 0.40 0.54 0.62 0.68 0.80 0.85 1.05 1.31 1.41 1.54 1.83 2.19 2.42 2.68 2.72
0.94 0.97 1.02 1.25 1.29 1.14 0.93 0.91 0.95 0.91 0.85 0.78 0.80 0.76 0.78 0.76 0.74 0.77 0.78 0.59 0.46 0.32 0.29 0.23 0.23 0.25 0.27 0.31 0.44 0.63 0.73 0.85 0.89 0.97 1.26 1.51 1.36 1.35 1.35 1.34 1.48 2.03 2.42
0.55 0.63 0.61 0.79 0.87 0.83 0.76 0.60 0.57 0.64 0.74 0.87 0.89 0.82 0.76 0.65 0.68 0.71 0.71 0.76 0.68 0.42 0.32 0.25 0.23 0.33 0.48 0.66 0.82 0.90 0.77 0.83 0.83 0.90 0.93 0.90 0.73 0.67 0.60 0.64 0.79 0.96 1.34
0.66 0.54 0.71 0.70 0.66 0.65 0.61 0.57 0.54 0.56 0.61 0.64 0.71 0.84 0.87 0.77 0.81 0.85 0.93 1.12 1.50 1.35 0.89 0.65 0.70 0.75 0.85 0.89 0.88 0.83 0.74 0.77 0.64 0.46 0.36 0.30 0.25 0.26 0.30 0.32 0.35 0.50 0.64
0.84 0.69 0.57 0.65 0.72 0.64 0.66 0.51 0.41 0.39 0.50 0.56 0.59 0.66 0.68 0.68 0.73 0.84 1.02 1.14 1.40 1.78 1.58 0.75 0.73 0.81 0.89 0.89 0.84 0.69 0.50 0.50 0.38 0.32 0.29 0.28 0.24 0.25 0.24 0.24 0.27 0.37 0.52
0.72 0.70 0.65 0.55 0.51 0.53 0.47 0.53 0.35 0.30 0.30 0.32 0.38 0.43 0.43 0.52 0.56 0.62 0.72 0.84 1.04 1.36 1.49 0.87 0.66 0.54 0.46 0.31 0.24 0.27 0.24 0.18 0.17 0.25 0.27 0.28 0.26 0.24 0.23 0.23 0.27 0.32 0.41
0.63 0.64 0.59 0.68 0.62 0.56 0.54 0.51 0.44 0.32 0.28 0.24 0.25 0.28 0.31 0.38 0.43 0.53 0.62 0.66 0.76 0.85 1.00 0.72 0.35 0.27 0.23 0.18 0.17 0.21 0.20 0.19 0.18 0.25 0.30 0.28 0.31 0.34 0.35 0.35 0.35 0.39 0.44
0.75 0.64 0.66 0.61 0.53 0.61 0.62 0.59 0.54 0.57 0.52 0.44 0.41 0.42 0.44 0.55 0.57 0.65 0.80 0.83 0.83 0.82 0.83 0.86 0.56 0.35 0.29 0.29 0.36 0.39 0.38 0.38 0.35 0.48 0.55 0.57 0.62 0.63 0.64 0.65 0.71 0.77 0.78
1.17 0.84 0.79 0.83 0.90 0.78 0.73 0.76 0.73 0.70 0.62 0.58 0.55 0.58 0.65 0.68 0.68 0.70 0.75 0.74 0.80 0.86 0.93 0.94 0.87 0.74 0.59 0.49 0.64 0.61 0.54 0.47 0.47 0.57 0.73 0.72 0.77 0.78 0.78 0.79 0.80 0.72 0.67
1.31 1.22 1.08 1.11 1.10 1.26 1.27 1.26 1.16 1.08 1.07 1.05 1.01 0.92 0.80 0.83 0.85 0.80 0.82 0.77 0.95 1.11 1.28 1.46 1.37 1.26 1.19 1.04 0.91 0.84 0.99 0.90 0.87 0.73 0.65 0.70 0.79 0.90 0.96 1.08 1.04 0.99 0.97
1.38 1.63 1.36 1.28 1.28 1.16 1.50 1.55 1.44 1.27 1.32 1.35 1.23 1.08 1.02 1.13 1.02 1.06 1.06 1.07 1.09 1.27 1.43 1.58 1.46 1.29 0.98 0.89 0.89 1.12 1.39 1.55 1.49 0.79 0.72 0.93 1.01 1.12 1.09 1.09 1.26 1.16 1.11
1.77 1.97 1.94 1.50 1.61 1.73 1.81 1.67 1.92 1.82 1.64 1.49 1.36 1.22 1.12 1.10 1.16 1.07 1.14 1.18 1.29 1.62 1.66 1.44 1.34 1.20 1.19 1.07 1.34 1.64 1.70 1.77 1.65 1.15 1.09 1.30 1.19 1.29 1.27 1.26 1.35 1.14 1.08
1.66 1.76 1.93 2.10 2.12 2.29 2.12 1.69 1.67 1.55 1.56 1.52 1.47 1.42 1.30 1.20 1.24 1.30 1.25 1.43 1.39 1.29 1.23 1.23 1.27 1.21 1.23 1.25 1.39 1.64 1.58 1.68 1.53 1.19 1.04 1.15 0.87 0.98 1.07 1.16 1.45 1.17 1.03
1.26 1.32 1.10 1.04 1.11 1.01 1.18 1.09 1.02 0.88 0.80 0.81 0.90 0.96 1.08 1.09 1.27 1.28 1.20 1.27 1.03 0.96 1.09 1.10 1.05 1.03 1.04 0.97 0.92 1.22 1.45 1.41 1.35 1.01 0.85 0.92 0.78 0.79 0.81 0.78 0.85 0.96 0.87
0.91 0.87 0.73 0.54 0.59 0.61 0.72 0.76 0.77 0.70 0.56 0.53 0.54 0.53 0.66 0.59 0.77 1.01 0.79 0.69 0.78 0.73 0.79 0.75 0.67 0.66 0.68 0.77 0.93 0.96 1.34 2.01 1.58 1.35 0.79 1.19 0.93 0.81 1.15 0.62 0.65 0.73 0.64

GFSMA_prec_precacc_174.txt.gz
Total_Precipitation_Accumulation
0.15 0.16 0.11 0.11 0.10 0.15 0.17 0.22 0.20 0.15 0.15 0.12 0.10 0.08 0.04 0.01 0.01 0.00 0.00 0.00 0.00 0.00 0.00 0.01 0.03 0.03 0.04 0.07 0.11 0.13 0.14 0.12 0.10 0.09 0.09 0.09 0.09 0.11 0.12 0.14 0.16 0.17 0.17
0.12 0.12 0.07 0.06 0.05 0.07 0.07 0.12 0.17 0.16 0.16 0.19 0.12 0.15 0.14 0.11 0.06 0.04 0.03 0.01 0.00 0.00 0.01 0.02 0.04 0.03 0.05 0.07 0.08 0.12 0.12 0.10 0.09 0.09 0.09 0.09 0.10 0.11 0.13 0.16 0.20 0.23 0.24
0.18 0.16 0.13 0.11 0.07 0.10 0.15 0.15 0.13 0.14 0.14 0.16 0.18 0.23 0.26 0.21 0.20 0.17 0.12 0.06 0.02 0.00 0.00 0.04 0.24 0.21 0.13 0.17 0.37 0.35 0.25 0.20 0.21 0.21 0.21 0.24 0.24 0.24 0.23 0.24 0.26 0.21 0.21
0.15 0.22 0.21 0.10 0.27 0.32 0.34 0.26 0.25 0.16 0.11 0.14 0.12 0.14 0.17 0.28 0.28 0.25 0.27 0.21 0.10 0.03 0.02 0.01 0.11 0.32 0.46 0.47 0.65 0.96 0.82 0.55 0.40 0.29 0.23 0.23 0.25 0.27 0.27 0.24 0.24 0.24 0.24
0.11 0.14 0.17 0.19 0.30 0.35 0.36 0.31 0.34 0.31 0.26 0.27 0.28 0.23 0.16 0.15 0.23 0.30 0.29 0.28 0.22 0.16 0.10 0.07 0.06 0.09 0.20 0.31 0.41 0.68 1.13 0.84 0.56 0.51 0.39 0.30 0.26 0.26 0.26 0.28 0.30 0.29 0.29
0.29 0.26 0.19 0.16 0.29 0.23 0.22 0.24 0.23 0.28 0.31 0.35 0.34 0.30 0.28 0.28 0.27 0.26 0.34 0.39 0.38 0.39 0.33 0.27 0.19 0.12 0.10 0.09 0.14 0.28 0.54 0.89 0.63 0.45 0.37 0.31 0.28 0.30 0.32 0.31 0.32 0.31 0.29
0.39 0.36 0.23 0.18 0.23 0.16 0.12 0.21 0.21 0.21 0.21 0.27 0.34 0.32 0.32 0.53 0.75 0.77 0.68 0.61 0.60 0.58 0.68 0.54 0.38 0.26 0.19 0.22 0.14 0.07 0.16 0.32 0.46 0.58 0.66 0.75 0.62 0.47 0.39 0.37 0.42 0.43 0.42
0.78 0.45 0.30 0.33 0.25 0.16 0.15 0.16 0.22 0.19 0.14 0.15 0.23 0.25 0.22 0.19 0.30 0.44 0.47 0.35 0.26 0.38 0.44 0.55 0.63 0.51 0.32 0.21 0.17 0.17 0.11 0.10 0.30 0.46 0.54 0.62 0.86 0.78 0.66 0.57 0.55 0.54 0.56
1.48 1.09 0.86 0.79 0.65 0.48 0.52 0.42 0.51 0.51 0.41 0.34 0.32 0.44 0.37 0.23 0.18 0.11 0.14 0.18 0.23 0.22 0.24 0.26 0.30 0.32 0.27 0.25 0.23 0.24 0.26 0.25 0.36 0.53 0.51 0.55 0.70 0.84 0.89 0.89 0.92 0.91 0.93
1.52 1.71 1.74 1.52 1.31 1.27 1.13 1.16 1.02 1.12 1.21 1.08 0.90 0.73 0.71 0.57 0.51 0.29 0.15 0.22 0.25 0.26 0.28 0.26 0.23 0.29 0.37 0.37 0.46 0.54 0.61 0.60 0.57 0.54 0.78 0.89 0.97 1.09 1.19 1.38 1.49 1.61 1.51
1.22 1.46 1.64 1.81 1.81 1.90 1.88 1.96 1.89 1.71 1.52 1.34 1.11 1.00 0.89 0.88 0.86 0.99 0.72 0.36 0.29 0.22 0.23 0.26 0.26 0.28 0.33 0.41 0.46 0.51 0.57 0.55 0.60 0.62 0.86 1.07 1.25 1.33 1.55 1.96 2.25 2.43 2.52
1.50 1.65 1.88 1.85 1.87 1.66 1.49 1.61 1.73 1.47 1.17 0.99 0.91 0.98 1.06 1.05 0.90 0.96 0.91 0.51 0.37 0.21 0.16 0.15 0.17 0.21 0.22 0.29 0.42 0.56 0.65 0.70 0.81 0.85 1.12 1.37 1.47 1.59 1.86 2.22 2.44 2.71 2.75
0.94 0.97 1.02 1.25 1.29 1.14 0.93 0.91 0.95 0.91 0.85 0.78 0.80 0.76 0.78 0.76 0.75 0.78 0.81 0.60 0.46 0.32 0.29 0.23 0.23 0.25 0.27 0.31 0.44 0.63 0.74 0.86 0.90 1.01 1.39 1.61 1.40 1.36 1.35 1.34 1.48 2.03 2.42
0.55 0.63 0.61 0.79 0.87 0.83 0.76 0.60 0.57 0.64 0.74 0.87 0.89 0.82 0.77 0.66 0.70 0.73 0.73 0.78 0.68 0.42 0.32 0.25 0.23 0.33 0.48 0.66 0.82 0.90 0.77 0.83 0.84 0.92 0.95 0.92 0.73 0.67 0.60 0.64 0.79 0.96 1.34
0.66 0.54 0.71 0.70 0.66 0.65 0.61 0.57 0.54 0.56 0.61 0.64 0.71 0.84 0.87 0.78 0.82 0.86 0.95 1.13 1.50 1.35 0.89 0.65 0.70 0.75 0.85 0.89 0.88 0.83 0.74 0.77 0.64 0.46 0.36 0.30 0.25 0.26 0.30 0.32 0.35 0.50 0.65
0.84 0.69 0.57 0.65 0.72 0.64 0.66 0.51 0.41 0.39 0.50 0.56 0.59 0.66 0.68 0.68 0.73 0.85 1.02 1.15 1.42 1.80 1.59 0.75 0.73 0.81 0.89 0.89 0.84 0.69 0.50 0.50 0.38 0.32 0.29 0.28 0.24 0.25 0.24 0.24 0.27 0.37 0.53
0.72 0.70 0.65 0.55 0.51 0.53 0.47 0.53 0.35 0.30 0.30 0.32 0.38 0.43 0.43 0.52 0.56 0.62 0.72 0.84 1.04 1.37 1.51 0.87 0.66 0.54 0.46 0.31 0.24 0.27 0.24 0.18 0.17 0.25 0.27 0.28 0.26 0.24 0.23 0.23 0.27 0.32 0.41
0.63 0.64 0.59 0.68 0.62 0.56 0.54 0.51 0.44 0.32 0.28 0.24 0.25 0.28 0.31 0.38 0.43 0.53 0.62 0.66 0.76 0.85 1.00 0.72 0.35 0.27 0.23 0.18 0.17 0.21 0.20 0.19 0.18 0.25 0.30 0.28 0.31 0.34 0.35 0.35 0.35 0.39 0.44
0.75 0.64 0.66 0.61 0.53 0.61 0.62 0.59 0.54 0.57 0.52 0.44 0.41 0.42 0.44 0.55 0.57 0.65 0.80 0.83 0.83 0.82 0.83 0.86 0.56 0.35 0.29 0.29 0.36 0.39 0.38 0.38 0.35 0.48 0.55 0.57 0.62 0.64 0.65 0.65 0.71 0.77 0.78
1.17 0.84 0.79 0.83 0.90 0.78 0.73 0.76 0.73 0.70 0.62 0.58 0.55 0.58 0.65 0.68 0.68 0.70 0.75 0.74 0.80 0.86 0.93 0.94 0.87 0.74 0.59 0.49 0.64 0.61 0.54 0.47 0.47 0.57 0.73 0.72 0.77 0.78 0.78 0.79 0.81 0.72 0.67
1.31 1.22 1.08 1.11 1.10 1.26 1.27 1.26 1.16 1.08 1.07 1.06 1.01 0.92 0.80 0.84 0.85 0.80 0.82 0.77 0.95 1.11 1.28 1.46 1.37 1.26 1.19 1.04 0.91 0.84 0.99 0.90 0.87 0.73 0.65 0.70 0.79 0.90 0.96 1.09 1.05 1.00 0.97
1.38 1.63 1.36 1.28 1.28 1.16 1.50 1.55 1.44 1.27 1.32 1.35 1.23 1.08 1.02 1.13 1.02 1.07 1.06 1.07 1.09 1.27 1.43 1.58 1.46 1.29 0.98 0.89 0.89 1.12 1.39 1.55 1.49 0.79 0.72 0.93 1.01 1.12 1.09 1.09 1.26 1.16 1.11
1.77 1.97 1.94 1.50 1.61 1.73 1.81 1.67 1.92 1.82 1.64 1.49 1.36 1.22 1.12 1.10 1.16 1.07 1.15 1.19 1.30 1.63 1.66 1.44 1.34 1.20 1.19 1.07 1.34 1.64 1.70 1.77 1.65 1.15 1.09 1.30 1.19 1.29 1.27 1.26 1.36 1.14 1.08
1.66 1.76 1.93 2.10 2.12 2.29 2.12 1.69 1.67 1.55 1.56 1.52 1.47 1.42 1.30 1.20 1.24 1.30 1.25 1.43 1.39 1.29 1.23 1.23 1.27 1.21 1.23 1.25 1.39 1.64 1.58 1.68 1.53 1.19 1.04 1.15 0.87 0.98 1.07 1.16 1.45 1.17 1.03
1.26 1.32 1.10 1.04 1.11 1.01 1.18 1.09 1.02 0.88 0.80 0.81 0.90 0.96 1.08 1.09 1.27 1.28 1.20 1.27 1.03 0.96 1.09 1.10 1.05 1.03 1.04 0.97 0.92 1.22 1.45 1.41 1.35 1.01 0.85 0.92 0.78 0.79 0.81 0.78 0.85 0.96 0.87
0.91 0.87 0.73 0.54 0.59 0.61 0.72 0.76 0.77 0.70 0.56 0.53 0.54 0.53 0.66 0.59 0.77 1.01 0.79 0.69 0.78 0.73 0.79 0.75 0.67 0.66 0.68 0.77 0.93 0.96 1.34 2.01 1.58 1.35 0.79 1.19 0.93 0.81 1.15 0.62 0.65 0.73 0.64

GFSMA_prec_precacc_177.txt.gz
Total_Precipitation_Accumulation
0.15 0.16 0.11 0.11 0.10 0.15 0.17 0.22 0.20 0.15 0.15 0.12 0.10 0.08 0.05 0.02 0.03 0.03 0.02 0.02 0.01 0.00 0.00 0.02 0.03 0.04 0.05 0.07 0.11 0.13 0.15 0.12 0.10 0.09 0.09 0.09 0.09 0.11 0.12 0.14 0.16 0.17 0.17
0.12 0.12 0.07 0.06 0.05 0.07 0.07 0.12 0.17 0.16 0.16 0.19 0.12 0.15 0.14 0.12 0.07 0.06 0.05 0.05 0.06 0.03 0.02 0.03 0.06 0.05 0.06 0.08 0.09 0.13 0.12 0.10 0.09 0.09 0.09 0.09 0.10 0.11 0.13 0.16 0.20 0.23 0.24
0.18 0.16 0.13 0.11 0.07 0.10 0.15 0.15 0.13 0.14 0.14 0.16 0.18 0.23 0.26 0.21 0.20 0.17 0.13 0.08 0.08 0.07 0.05 0.07 0.27 0.26 0.19 0.19 0.38 0.36 0.26 0.21 0.22 0.21 0.21 0.24 0.24 0.24 0.23 0.24 0.26 0.21 0.21
0.15 0.22 0.21 0.10 0.27 0.32 0.34 0.26 0.25 0.16 0.11 0.14 0.12 0.14 0.17 0.28 0.28 0.25 0.27 0.21 0.12 0.09 0.08 0.06 0.16 0.37 0.51 0.50 0.67 0.98 0.84 0.57 0.41 0.31 0.25 0.25 0.26 0.29 0.29 0.25 0.25 0.24 0.24
0.11 0.14 0.17 0.19 0.30 0.35 0.36 0.31 0.34 0.31 0.26 0.27 0.28 0.23 0.16 0.15 0.23 0.30 0.29 0.28 0.23 0.17 0.13 0.18 0.20 0.23 0.31 0.37 0.44 0.71 1.17 0.90 0.62 0.55 0.43 0.32 0.28 0.28 0.29 0.30 0.32 0.30 0.29
0.29 0.26 0.19 0.16 0.29 0.23 0.22 0.24 0.23 0.28 0.31 0.35 0.34 0.30 0.28 0.28 0.27 0.26 0.34 0.39 0.38 0.39 0.33 0.31 0.30 0.27 0.31 0.22 0.22 0.33 0.60 0.98 0.76 0.53 0.42 0.36 0.31 0.33 0.35 0.34 0.34 0.32 0.29
0.39 0.36 0.23 0.18 0.23 0.16 0.12 0.21 0.21 0.21 0.21 0.27 0.34 0.32 0.32 0.53 0.75 0.77 0.68 0.61 0.60 0.58 0.68 0.54 0.39 0.30 0.28 0.42 0.41 0.18 0.20 0.37 0.56 0.69 0.74 0.82 0.70 0.52 0.43 0.41 0.46 0.45 0.44
0.78 0.45 0.30 0.33 0.25 0.16 0.15 0.16 0.22 0.19 0.14 0.15 0.23 0.25 0.22 0.19 0.30 0.44 0.47 0.35 0.26 0.38 0.44 0.55 0.63 0.51 0.33 0.23 0.24 0.32 0.24 0.14 0.32 0.52 0.63 0.70 0.91 0.81 0.68 0.60 0.61 0.59 0.60
1.48 1.09 0.86 0.79 0.65 0.48 0.52 0.42 0.51 0.51 0.41 0.34 0.32 0.44 0.38 0.24 0.18 0.11 0.14 0.18 0.23 0.22 0.24 0.27 0.31 0.33 0.29 0.26 0.27 0.29 0.35 0.44 0.48 0.58 0.53 0.60 0.75 0.87 0.93 0.95 0.98 0.95 0.98
1.52 1.71 1.74 1.52 1.31 1.27 1.13 1.16 1.02 1.12 1.21 1.08 0.90 0.73 0.72 0.58 0.52 0.29 0.15 0.22 0.25 0.26 0.28 0.26 0.25 0.32 0.40 0.39 0.47 0.58 0.68 0.70 0.64 0.58 0.82 0.93 1.02 1.17 1.30 1.50 1.60 1.72 1.72
1.22 1.46 1.64 1.81 1.81 1.90 1.88 1.96 1.89 1.71 1.52 1.34 1.11 1.00 0.89 0.88 0.86 1.00 0.72 0.36 0.29 0.22 0.23 0.26 0.29 0.35 0.39 0.44 0.48 0.52 0.58 0.59 0.63 0.63 0.88 1.16 1.39 1.50 1.71 2.10 2.36 2.59 2.97
1.50 1.65 1.88 1.85 1.87 1.66 1.49 1.61 1.73 1.47 1.17 0.99 0.91 0.98 1.06 1.05 0.90 0.96 0.92 0.51 0.37 0.21 0.17 0.16 0.19 0.26 0.27 0.31 0.43 0.59 0.67 0.73 0.82 0.85 1.13 1.44 1.56 1.66 1.88 2.22 2.44 2.71 2.75
0.94 0.97 1.02 1.25 1.29 1.14 0.93 0.91 0.95 0.91 0.85 0.78 0.80 0.76 0.78 0.76 0.75 0.79 0.83 0.61 0.46 0.32 0.29 0.23 0.24 0.28 0.27 0.33 0.44 0.63 0.74 0.86 0.90 1.01 1.44 1.65 1.42 1.36 1.35 1.34 1.48 2.03 2.42
0.55 0.63 0.61 0.79 0.87 0.83 0.76 0.60 0.57 0.64 0.74 0.87 0.89 0.82 0.77 0.66 0.70 0.74 0.74 0.78 0.68 0.42 0.32 0.25 0.23 0.36 0.49 0.66 0.82 0.90 0.77 0.84 0.85 0.93 0.96 0.92 0.73 0.67 0.60 0.64 0.79 0.96 1.34
0.66 0.54 0.71 0.70 0.66 0.65 0.61 0.57 0.54 0.56 0.61 0.64 0.71 0.84 0.87 0.78 0.82 0.86 0.95 1.14 1.52 1.36 0.89 0.65 0.71 0.76 0.85 0.89 0.88 0.83 0.74 0.77 0.64 0.46 0.36 0.30 0.25 0.26 0.30 0.32 0.35 0.50 0.65
0.84 0.69 0.57 0.65 0.72 0.64 0.66 0.51 0.41 0.39 0.50 0.56 0.59 0.66 0.68 0.68 0.73 0.85 1.02 1.15 1.42 1.81 1.60 0.75 0.74 0.82 0.89 0.89 0.84 0.69 0.50 0.50 0.38 0.32 0.29 0.28 0.24 0.25 0.24 0.24 0.27 0.37 0.53
0.72 0.70 0.65 0.55 0.51 0.53 0.47 0.53 0.35 0.30 0.30 0.32 0.38 0.43 0.43 0.52 0.56 0.62 0.72 0.84 1.04 1.38 1.52 0.87 0.66 0.54 0.46 0.31 0.24 0.27 0.24 0.18 0.17 0.25 0.27 0.28 0.26 0.25 0.23 0.24 0.27 0.33 0.42
0.63 0.64 0.59 0.68 0.62 0.56 0.54 0.51 0.44 0.32 0.28 0.24 0.25 0.28 0.31 0.38 0.43 0.53 0.62 0.66 0.76 0.85 1.00 0.72 0.35 0.27 0.23 0.18 0.17 0.21 0.20 0.19 0.18 0.25 0.30 0.29 0.31 0.35 0.36 0.35 0.35 0.39 0.44
0.75 0.64 0.66 0.61 0.53 0.61 0.62 0.59 0.54 0.57 0.52 0.44 0.41 0.42 0.44 0.55 0.57 0.65 0.80 0.83 0.83 0.82 0.83 0.86 0.56 0.35 0.29 0.29 0.36 0.39 0.38 0.38 0.35 0.48 0.55 0.57 0.62 0.65 0.65 0.65 0.71 0.77 0.78
1.17 0.84 0.79 0.83 0.90 0.78 0.73 0.76 0.73 0.70 0.62 0.58 0.55 0.58 0.65 0.68 0.68 0.70 0.75 0.74 0.80 0.86 0.93 0.94 0.87 0.74 0.59 0.49 0.64 0.61 0.54 0.47 0.47 0.57 0.73 0.72 0.77 0.78 0.79 0.79 0.81 0.72 0.67
1.31 1.22 1.08 1.11 1.10 1.26 1.27 1.26 1.16 1.08 1.07 1.06 1.01 0.92 0.80 0.84 0.86 0.81 0.82 0.77 0.95 1.11 1.28 1.46 1.37 1.26 1.19 1.04 0.91 0.84 0.99 0.90 0.87 0.73 0.65 0.70 0.79 0.90 0.96 1.09 1.05 1.00 0.97
1.38 1.63 1.36 1.28 1.28 1.16 1.50 1.55 1.44 1.27 1.32 1.35 1.23 1.08 1.02 1.14 1.03 1.07 1.07 1.08 1.09 1.27 1.43 1.58 1.46 1.29 0.98 0.89 0.89 1.12 1.39 1.55 1.49 0.79 0.72 0.93 1.01 1.12 1.09 1.10 1.28 1.17 1.11
1.77 1.97 1.94 1.50 1.61 1.73 1.81 1.67 1.92 1.82 1.64 1.49 1.36 1.22 1.12 1.10 1.16 1.07 1.15 1.19 1.30 1.63 1.66 1.44 1.34 1.20 1.19 1.07 1.34 1.64 1.70 1.77 1.65 1.15 1.09 1.30 1.19 1.29 1.27 1.26 1.36 1.15 1.08
1.66 1.76 1.93 2.10 2.12 2.29 2.12 1.69 1.67 1.55 1.56 1.52 1.47 1.42 1.30 1.20 1.24 1.30 1.25 1.43 1.39 1.29 1.23 1.23 1.27 1.21 1.23 1.25 1.39 1.64 1.58 1.68 1.53 1.19 1.04 1.15 0.87 0.98 1.07 1.16 1.45 1.17 1.03
1.26 1.32 1.10 1.04 1.11 1.01 1.18 1.09 1.02 0.88 0.80 0.81 0.90 0.96 1.08 1.09 1.27 1.28 1.20 1.27 1.03 0.96 1.09 1.10 1.05 1.03 1.04 0.97 0.92 1.22 1.45 1.41 1.35 1.01 0.85 0.92 0.78 0.79 0.81 0.78 0.85 0.96 0.87
0.91 0.87 0.73 0.54 0.59 0.61 0.72 0.76 0.77 0.70 0.56 0.53 0.54 0.53 0.66 0.59 0.77 1.01 0.79 0.69 0.78 0.73 0.79 0.75 0.67 0.66 0.68 0.77 0.93 0.96 1.34 2.01 1.58 1.35 0.79 1.19 0.93 0.81 1.15 0.62 0.65 0.73 0.64

GFSMA_prec_precacc_183.txt.gz
Total_Precipitation_Accumulation
0.15 0.16 0.11 0.11 0.10 0.15 0.17 0.22 0.20 0.15 0.15 0.12 0.10 0.08 0.05 0.02 0.03 0.03 0.02 0.02 0.02 0.01 0.01 0.03 0.08 0.09 0.09 0.10 0.15 0.18 0.17 0.14 0.12 0.10 0.09 0.10 0.10 0.11 0.13 0.15 0.17 0.17 0.18
0.12 0.12 0.07 0.06 0.05 0.07 0.07 0.12 0.17 0.16 0.16 0.19 0.12 0.15 0.14 0.12 0.07 0.06 0.05 0.05 0.06 0.05 0.03 0.04 0.07 0.09 0.13 0.16 0.18 0.24 0.19 0.13 0.10 0.10 0.10 0.10 0.11 0.12 0.13 0.16 0.21 0.23 0.25
0.18 0.16 0.13 0.11 0.07 0.10 0.15 0.15 0.13 0.14 0.14 0.16 0.18 0.23 0.26 0.21 0.20 0.17 0.13 0.08 0.08 0.07 0.06 0.10 0.28 0.29 0.23 0.24 0.49 0.53 0.42 0.32 0.27 0.23 0.23 0.27 0.27 0.26 0.23 0.24 0.27 0.22 0.22
0.15 0.22 0.21 0.10 0.27 0.32 0.34 0.26 0.25 0.16 0.11 0.14 0.12 0.14 0.17 0.28 0.28 0.25 0.27 0.21 0.12 0.09 0.08 0.06 0.18 0.40 0.55 0.55 0.75 1.11 1.04 0.78 0.60 0.42 0.31 0.29 0.33 0.35 0.35 0.28 0.28 0.27 0.26
0.11 0.14 0.17 0.19 0.30 0.35 0.36 0.31 0.34 0.31 0.26 0.27 0.28 0.23 0.16 0.15 0.23 0.30 0.29 0.28 0.23 0.17 0.13 0.18 0.20 0.24 0.35 0.43 0.51 0.80 1.34 1.15 0.90 0.80 0.61 0.43 0.37 0.36 0.38 0.38 0.38 0.32 0.31
0.29 0.26 0.19 0.16 0.29 0.23 0.22 0.24 0.23 0.28 0.31 0.35 0.34 0.30 0.28 0.28 0.27 0.26 0.34 0.39 0.38 0.39 0.33 0.31 0.30 0.27 0.33 0.32 0.36 0.50 0.79 1.27 1.27 1.32 1.27 0.96 0.62 0.52 0.48 0.44 0.41 0.35 0.31
0.39 0.36 0.23 0.18 0.23 0.16 0.12 0.21 0.21 0.21 0.21 0.27 0.34 0.32 0.32 0.53 0.75 0.77 0.68 0.61 0.60 0.58 0.68 0.54 0.39 0.30 0.28 0.42 0.46 0.35 0.40 0.65 0.94 1.20 1.55 2.07 2.16 1.64 0.83 0.51 0.52 0.52 0.49
0.78 0.45 0.30 0.33 0.25 0.16 0.15 0.16 0.22 0.19 0.14 0.15 0.23 0.25 0.22 0.19 0.30 0.44 0.47 0.35 0.26 0.38 0.44 0.55 0.63 0.52 0.34 0.24 0.25 0.34 0.35 0.41 0.62 0.81 1.11 1.42 1.75 1.87 1.55 0.87 0.70 0.67 0.68
1.48 1.09 0.86 0.79 0.65 0.48 0.52 0.42 0.51 0.51 0.41 0.34 0.32 0.44 0.38 0.24 0.18 0.11 0.14 0.18 0.23 0.22 0.24 0.27 0.31 0.34 0.30 0.27 0.30 0.32 0.39 0.53 0.62 0.76 0.72 0.88 1.13 1.45 2.00 1.84 1.32 1.12 1.12
1.52 1.71 1.74 1.52 1.31 1.27 1.13 1.16 1.02 1.12 1.21 1.08 0.90 0.73 0.72 0.58 0.52 0.30 0.15 0.22 0.25 0.26 0.28 0.26 0.25 0.33 0.42 0.41 0.52 0.61 0.71 0.78 0.76 0.68 1.05 1.25 1.27 1.42 1.71 2.23 2.24 2.18 2.02
1.22 1.46 1.64 1.81 1.81 1.90 1.88 1.96 1.89 1.71 1.52 1.34 1.11 1.00 0.89 0.88 0.86 1.00 0.72 0.36 0.29 0.22 0.23 0.26 0.29 0.35 0.41 0.48 0.56 0.64 0.68 0.72 0.72 0.67 1.00 1.40 1.85 1.99 2.18 2.55 2.89 3.12 3.12
1.50 1.65 1.88 1.85 1.87 1.66 1.49 1.61 1.73 1.47 1.17 0.99 0.91 0.98 1.06 1.05 0.90 0.97 0.93 0.51 0.37 0.21 0.17 0.16 0.19 0.26 0.28 0.36 0.55 0.83 0.88 0.93 1.10 1.08 1.37 1.79 1.93 2.25 2.26 2.50 2.76 3.11 2.97
0.94 0.97 1.02 1.25 1.29 1.14 0.93 0.91 0.95 0.91 0.85 0.78 0.80 0.76 0.78 0.76 0.75 0.80 0.84 0.62 0.46 0.32 0.29 0.23 0.25 0.28 0.28 0.34 0.49 0.76 0.96 1.18 1.38 1.53 1.73 1.87 1.54 1.41 1.41 1.39 1.51 2.07 2.47
0.55 0.63 0.61 0.79 0.87 0.83 0.76 0.60 0.57 0.64 0.74 0.87 0.89 0.82 0.77 0.66 0.70 0.74 0.75 0.80 0.69 0.42 0.32 0.25 0.23 0.39 0.52 0.66 0.85 0.91 0.79 0.94 1.09 1.31 1.28 1.10 0.80 0.68 0.60 0.64 0.79 0.96 1.34
0.66 0.54 0.71 0.70 0.66 0.65 0.61 0.57 0.54 0.56 0.61 0.64 0.71 0.84 0.87 0.78 0.82 0.86 0.95 1.14 1.53 1.36 0.89 0.65 0.72 0.78 0.86 0.89 0.88 0.83 0.74 0.77 0.65 0.46 0.38 0.32 0.26 0.26 0.30 0.32 0.35 0.50 0.65
0.84 0.69 0.57 0.65 0.72 0.64 0.66 0.51 0.41 0.39 0.50 0.56 0.59 0.66 0.68 0.68 0.73 0.85 1.02 1.15 1.42 1.81 1.60 0.76 0.76 0.83 0.90 0.89 0.84 0.69 0.50 0.50 0.38 0.33 0.29 0.28 0.24 0.25 0.24 0.24 0.27 0.37 0.53
0.72 0.70 0.65 0.55 0.51 0.53 0.47 0.53 0.35 0.30 0.30 0.32 0.38 0.43 0.43 0.52 0.56 0.62 0.72 0.84 1.04 1.38 1.53 0.87 0.66 0.54 0.46 0.31 0.24 0.27 0.24 0.18 0.17 0.25 0.27 0.28 0.26 0.25 0.23 0.24 0.28 0.33 0.43
0.63 0.64 0.59 0.68 0.62 0.56 0.54 0.51 0.44 0.32 0.28 0.24 0.25 0.28 0.31 0.38 0.43 0.53 0.62 0.66 0.76 0.85 1.00 0.72 0.35 0.27 0.23 0.18 0.17 0.21 0.20 0.19 0.18 0.25 0.31 0.29 0.32 0.36 0.37 0.36 0.36 0.40 0.45
0.75 0.64 0.66 0.61 0.53 0.61 0.62 0.59 0.54 0.57 0.52 0.44 0.41 0.42 0.44 0.55 0.57 0.65 0.80 0.83 0.83 0.82 0.83 0.86 0.56 0.35 0.29 0.29 0.36 0.39 0.38 0.38 0.35 0.48 0.55 0.57 0.63 0.66 0.67 0.66 0.72 0.77 0.78
1.17 0.84 0.79 0.83 0.90 0.78 0.73 0.76 0.73 0.70 0.62 0.58 0.55 0.58 0.65 0.68 0.68 0.70 0.75 0.74 0.80 0.86 0.93 0.94 0.87 0.74 0.59 0.49 0.64 0.61 0.54 0.47 0.47 0.57 0.73 0.72 0.77 0.79 0.81 0.81 0.81 0.73 0.68
1.31 1.22 1.08 1.11 1.10 1.26 1.27 1.26 1.16 1.08 1.07 1.06 1.01 0.92 0.80 0.84 0.86 0.81 0.82 0.77 0.95 1.11 1.28 1.46 1.37 1.26 1.19 1.04 0.91 0.84 0.99 0.90 0.87 0.73 0.65 0.70 0.79 0.90 0.97 1.09 1.05 1.00 0.97
1.38 1.63 1.36 1.28 1.28 1.16 1.50 1.55 1.44 1.27 1.32 1.35 1.23 1.08 1.02 1.14 1.03 1.07 1.07 1.08 1.10 1.27 1.43 1.58 1.46 1.29 0.98 0.89 0.89 1.12 1.39 1.55 1.49 0.79 0.72 0.93 1.01 1.12 1.09 1.10 1.28 1.17 1.11
1.77 1.97 1.94 1.50 1.61 1.73 1.81 1.67 1.92 1.82 1.64 1.49 1.36 1.22 1.12 1.10 1.16 1.07 1.15 1.19 1.30 1.63 1.66 1.44 1.34 1.20 1.19 1.07 1.34 1.64 1.70 1.77 1.65 1.15 1.09 1.30 1.19 1.29 1.27 1.26 1.36 1.15 1.08
1.66 1.76 1.93 2.10 2.12 2.29 2.12 1.69 1.67 1.55 1.56 1.52 1.47 1.42 1.30 1.20 1.24 1.30 1.25 1.43 1.39 1.29 1.23 1.23 1.27 1.21 1.23 1.25 1.39 1.64 1.58 1.68 1.53 1.19 1.04 1.15 0.87 0.98 1.07 1.16 1.45 1.18 1.03
1.26 1.32 1.10 1.04 1.11 1.01 1.18 1.09 1.02 0.88 0.80 0.81 0.90 0.96 1.08 1.09 1.27 1.28 1.20 1.27 1.03 0.96 1.09 1.10 1.05 1.03 1.04 0.97 0.92 1.22 1.45 1.41 1.35 1.01 0.85 0.92 0.78 0.79 0.81 0.78 0.85 0.96 0.87
0.91 0.87 0.73 0.54 0.59 0.61 0.72 0.76 0.77 0.70 0.56 0.53 0.54 0.53 0.66 0.59 0.77 1.01 0.79 0.69 0.78 0.73 0.79 0.75 0.67 0.66 0.68 0.77 0.93 0.96 1.34 2.01 1.58 1.35 0.79 1.19 0.93 0.81 1.15 0.62 0.65 0.73 0.64

GFSMA_prec_precacc_186.txt.gz
Total_Precipitation_Accumulation
0.15 0.16 0.11 0.11 0.10 0.15 0.17 0.22 0.20 0.15 0.15 0.12 0.10 0.08 0.05 0.02 0.03 0.03 0.02 0.02 0.02 0.01 0.01 0.03 0.09 0.12 0.13 0.15 0.18 0.20 0.20 0.17 0.16 0.13 0.11 0.10 0.10 0.12 0.14 0.15 0.18 0.18 0.18
0.12 0.12 0.07 0.06 0.05 0.07 0.07 0.12 0.17 0.16 0.16 0.19 0.12 0.15 0.14 0.12 0.07 0.06 0.05 0.05 0.06 0.05 0.03 0.04 0.07 0.09 0.14 0.20 0.25 0.31 0.25 0.18 0.15 0.14 0.12 0.11 0.11 0.12 0.14 0.17 0.21 0.24 0.25
0.18 0.16 0.13 0.11 0.07 0.10 0.15 0.15 0.13 0.14 0.14 0.16 0.18 0.23 0.26 0.21 0.20 0.17 0.13 0.08 0.08 0.07 0.06 0.10 0.28 0.29 0.23 0.24 0.50 0.57 0.49 0.39 0.34 0.30 0.28 0.30 0.29 0.26 0.23 0.24 0.27 0.22 0.22
0.15 0.22 0.21 0.10 0.27 0.32 0.34 0.26 0.25 0.16 0.11 0.14 0.12 0.14 0.17 0.28 0.28 0.25 0.27 0.21 0.12 0.09 0.08 0.06 0.18 0.40 0.55 0.55 0.75 1.12 1.07 0.85 0.69 0.54 0.40 0.32 0.36 0.37 0.37 0.29 0.29 0.28 0.26
0.11 0.14 0.17 0.19 0.30 0.35 0.36 0.31 0.34 0.31 0.26 0.27 0.28 0.23 0.16 0.15 0.23 0.30 0.29 0.28 0.23 0.17 0.13 0.18 0.20 0.24 0.35 0.43 0.51 0.80 1.35 1.17 0.97 0.91 0.75 0.54 0.44 0.41 0.43 0.42 0.42 0.36 0.34
0.29 0.26 0.19 0.16 0.29 0.23 0.22 0.24 0.23 0.28 0.31 0.35 0.34 0.30 0.28 0.28 0.27 0.26 0.34 0.39 0.38 0.39 0.33 0.31 0.30 0.27 0.33 0.32 0.36 0.50 0.79 1.27 1.29 1.41 1.43 1.24 0.91 0.73 0.59 0.51 0.47 0.41 0.37
0.39 0.36 0.23 0.18 0.23 0.16 0.12 0.21 0.21 0.21 0.21 0.27 0.34 0.32 0.32 0.53 0.75 0.77 0.68 0.61 0.60 0.58 0.68 0.54 0.39 0.30 0.28 0.42 0.46 0.36 0.40 0.65 0.94 1.21 1.62 2.27 2.80 2.83 1.92 0.95 0.68 0.63 0.59
0.78 0.45 0.30 0.33 0.25 0.16 0.15 0.16 0.22 0.19 0.14 0.15 0.23 0.25 0.22 0.19 0.30 0.44 0.47 0.35 0.26 0.38 0.44 0.55 0.63 0.52 0.34 0.24 0.25 0.34 0.35 0.42 0.63 0.82 1.13 1.49 1.88 2.22 2.46 1.83 1.16 0.92 0.89
1.48 1.09 0.86 0.79 0.65 0.48 0.52 0.42 0.51 0.51 0.41 0.34 0.32 0.44 0.38 0.24 0.18 0.11 0.14 0.18 0.23 0.22 0.24 0.27 0.31 0.34 0.30 0.27 0.30 0.32 0.39 0.53 0.62 0.77 0.73 0.92 1.18 1.47 2.10 2.27 1.99 1.62 1.44
1.52 1.71 1.74 1.52 1.31 1.27 1.13 1.16 1.02 1.12 1.21 1.08 0.90 0.73 0.72 0.58 0.52 0.30 0.15 0.22 0.25 0.26 0.28 0.26 0.25 0.33 0.42 0.41 0.52 0.61 0.72 0.80 0.77 0.69 1.05 1.28 1.33 1.48 1.79 2.40 2.83 2.86 2.59
1.22 1.46 1.64 1.81 1.81 1.90 1.88 1.96 1.89 1.71 1.52 1.34 1.11 1.00 0.89 0.88 0.86 1.01 0.72 0.36 0.29 0.22 0.23 0.26 0.29 0.35 0.41 0.48 0.57 0.64 0.69 0.76 0.73 0.68 1.02 1.43 1.92 2.08 2.32 2.72 3.12 3.93 4.25
1.50 1.65 1.88 1.85 1.87 1.66 1.49 1.61 1.73 1.47 1.17 0.99 0.91 0.98 1.06 1.06 0.90 0.98 0.94 0.51 0.37 0.21 0.17 0.16 0.19 0.26 0.28 0.36 0.55 0.83 0.90 0.96 1.13 1.13 1.51 1.92 2.05 2.35 2.45 2.69 2.88 3.39 3.58
0.94 0.97 1.02 1.25 1.29 1.14 0.93 0.91 0.95 0.91 0.85 0.78 0.80 0.76 0.78 0.76 0.76 0.80 0.85 0.62 0.46 0.32 0.29 0.23 0.25 0.28 0.28 0.34 0.49 0.76 0.97 1.18 1.42 1.69 2.75 2.58 1.98 1.68 1.72 1.48 1.58 2.13 2.56
0.55 0.63 0.61 0.79 0.87 0.83 0.76 0.60 0.57 0.64 0.74 0.87 0.89 0.82 0.77 0.66 0.70 0.75 0.76 0.80 0.69 0.42 0.32 0.25 0.23 0.39 0.52 0.66 0.85 0.91 0.79 0.94 1.11 1.72 2.10 1.86 1.02 0.80 0.74 0.78 0.81 0.96 1.34
0.66 0.54 0.71 0.70 0.66 0.65 0.61 0.57 0.54 0.56 0.61 0.64 0.71 0.84 0.87 0.78 0.82 0.86 0.95 1.15 1.54 1.37 0.89 0.65 0.73 0.79 0.86 0.89 0.88 0.83 0.74 0.77 0.65 0.47 0.41 0.41 0.30 0.26 0.30 0.32 0.35 0.50 0.65
0.84 0.69 0.57 0.65 0.72 0.64 0.66 0.51 0.41 0.39 0.50 0.56 0.59 0.66 0.68 0.68 0.73 0.85 1.02 1.15 1.43 1.83 1.61 0.76 0.76 0.83 0.90 0.89 0.84 0.69 0.50 0.50 0.38 0.33 0.29 0.28 0.25 0.25 0.24 0.24 0.27 0.37 0.53
0.72 0.70 0.65 0.55 0.51 0.53 0.47 0.53 0.35 0.30 0.30 0.32 0.38 0.43 0.43 0.52 0.56 0.62 0.72 0.84 1.04 1.38 1.53 0.87 0.66 0.54 0.46 0.31 0.24 0.27 0.24 0.18 0.17 0.25 0.27 0.29 0.27 0.25 0.24 0.24 0.28 0.34 0.43
0.63 0.64 0.59 0.68 0.62 0.56 0.54 0.51 0.44 0.32 0.28 0.24 0.25 0.28 0.31 0.38 0.43 0.53 0.62 0.66 0.76 0.85 1.00 0.72 0.35 0.27 0.23 0.18 0.17 0.21 0.20 0.19 0.18 0.25 0.31 0.30 0.32 0.36 0.37 0.36 0.36 0.40 0.45
0.75 0.64 0.66 0.61 0.53 0.61 0.62 0.59 0.54 0.57 0.52 0.44 0.41 0.42 0.44 0.55 0.57 0.65 0.80 0.83 0.83 0.82 0.83 0.86 0.56 0.35 0.29 0.29 0.36 0.39 0.38 0.38 0.35 0.48 0.55 0.57 0.64 0.67 0.67 0.67 0.72 0.77 0.78
1.17 0.84 0.79 0.83 0.90 0.78 0.73 0.76 0.73 0.70 0.62 0.58 0.55 0.58 0.65 0.68 0.68 0.70 0.75 0.74 0.80 0.86 0.93 0.94 0.88 0.74 0.59 0.49 0.64 0.61 0.54 0.47 0.47 0.57 0.73 0.72 0.77 0.79 0.82 0.81 0.81 0.73 0.68
1.31 1.22 1.08 1.11 1.10 1.26 1.27 1.26 1.16 1.08 1.07 1.06 1.01 0.92 0.80 0.84 0.86 0.81 0.82 0.77 0.95 1.11 1.28 1.46 1.37 1.26 1.19 1.04 0.91 0.84 0.99 0.90 0.87 0.73 0.65 0.70 0.79 0.90 0.98 1.10 1.05 1.00 0.97
1.38 1.63 1.36 1.28 1.28 1.16 1.50 1.55 1.44 1.27 1.32 1.35 1.23 1.08 1.02 1.14 1.03 1.07 1.07 1.08 1.10 1.27 1.43 1.58 1.46 1.29 0.98 0.89 0.89 1.12 1.39 1.55 1.49 0.79 0.72 0.93 1.01 1.12 1.09 1.10 1.28 1.17 1.11
1.77 1.97 1.94 1.50 1.61 1.73 1.81 1.67 1.92 1.82 1.64 1.49 1.36 1.22 1.12 1.10 1.16 1.07 1.15 1.19 1.30 1.63 1.66 1.44 1.34 1.20 1.19 1.07 1.34 1.64 1.70 1.77 1.65 1.15 1.09 1.30 1.19 1.29 1.27 1.26 1.36 1.15 1.08
1.66 1.76 1.93 2.10 2.12 2.29 2.12 1.69 1.67 1.55 1.56 1.52 1.47 1.42 1.30 1.20 1.24 1.30 1.25 1.43 1.39 1.29 1.23 1.23 1.27 1.21 1.23 1.25 1.39 1.64 1.58 1.68 1.53 1.19 1.04 1.15 0.87 0.98 1.07 1.16 1.45 1.18 1.03
1.26 1.32 1.10 1.04 1.11 1.01 1.18 1.09 1.02 0.88 0.80 0.81 0.90 0.96 1.08 1.09 1.27 1.28 1.20 1.27 1.03 0.96 1.09 1.10 1.05 1.03 1.04 0.97 0.92 1.22 1.45 1.41 1.35 1.01 0.85 0.92 0.78 0.79 0.81 0.78 0.85 0.96 0.87
0.91 0.87 0.73 0.54 0.59 0.61 0.72 0.76 0.77 0.70 0.56 0.53 0.54 0.53 0.66 0.59 0.77 1.01 0.79 0.69 0.78 0.73 0.79 0.75 0.68 0.66 0.68 0.77 0.93 0.96 1.34 2.01 1.58 1.35 0.79 1.19 0.93 0.81 1.15 0.62 0.65 0.73 0.64